RH
100 96 98 98 99 99 94 84 84 79 78 86 92 77 70 67 69 80 80 82 81 91 92 84 97 100 100 88 63 90 89 68 77 87 93 98 86 72 72 66 59 60 54 49 46 42 45
95 96 99 99 99 88 83 85 88 91 92 97 95 77 79 72 81 84 74 74 79 69 93 86 92 100 100 84 55 60 90 70 87 81 80 96 85 69 62 58 65 52 51 48 44 44 44
96 100 99 98 98 83 77 84 91 90 93 94 93 91 77 74 89 74 70 74 80 93 96 100 100 99 100 81 51 74 81 71 82 87 80 90 75 71 62 60 52 50 55 55 54 50 52
98 98 99 99 96 81 86 85 76 84 79 91 89 77 73 72 72 76 70 63 67 64 88 89 100 100 98 78 68 69 78 85 75 77 75 72 80 72 63 57 57 63 61 72 51 52 47
97 99 97 97 83 81 87 78 78 93 86 92 83 90 88 76 73 80 77 73 65 60 84 82 97 99 89 81 66 80 79 83 86 88 84 66 76 75 66 71 74 67 84 75 61 48 48
98 98 98 100 83 79 81 82 78 87 78 79 92 88 94 82 91 94 93 82 56 57 61 77 84 100 94 76 56 78 77 79 90 92 100 83 84 87 83 80 80 83 74 71 66 47 55
94 100 97 99 86 79 86 77 84 92 88 90 97 90 82 81 93 98 95 79 69 89 80 76 92 83 81 73 56 79 76 75 82 88 96 82 96 93 78 75 62 67 69 68 58 47 49
97 98 96 98 88 82 78 83 81 75 91 95 92 87 80 85 86 99 99 88 78 94 86 73 99 76 83 72 65 73 68 76 83 94 96 98 93 77 72 70 70 70 73 74 60 50 49
97 97 98 98 82 84 83 84 90 92 87 94 87 74 72 81 97 88 86 83 81 92 91 76 92 91 79 67 68 70 64 78 83 89 84 93 85 80 78 84 84 67 69 66 66 58 52
98 99 100 99 88 92 86 94 93 93 89 96 86 76 78 97 98 100 97 76 85 91 95 98 95 89 71 62 73 67 64 71 78 86 81 84 72 81 89 90 66 75 55 58 61 65 79
97 99 99 100 98 92 87 96 100 99 98 99 97 93 94 90 99 100 90 82 91 97 96 98 96 89 74 68 68 68 68 62 74 78 76 88 70 89 86 68 56 66 54 58 60 73 70
94 99 99 95 92 91 98 88 98 98 95 87 86 89 87 91 97 94 99 100 91 96 96 99 98 93 77 70 72 74 70 61 65 69 64 68 52 54 56 59 53 57 58 67 80 76 87
98 100 98 90 97 92 96 93 98 97 86 82 75 77 74 72 84 98 90 93 94 93 98 100 98 77 75 80 78 74 74 76 89 98 100 78 70 52 55 67 57 58 68 83 71 95 78
96 93 95 93 99 90 98 97 99 96 90 93 85 66 66 70 81 90 94 93 93 98 100 90 76 73 88 77 78 79 76 82 68 82 97 95 93 63 53 63 72 64 66 79 55 87 86
84 93 94 93 86 90 98 99 100 99 89 87 78 74 70 79 85 89 94 96 98 100 94 84 71 88 90 88 88 93 78 79 67 61 78 86 76 60 55 57 58 73 81 61 83 79 96
69 92 94 95 85 90 88 94 98 71 78 72 74 86 88 88 88 90 93 98 99 88 62 72 92 82 95 96 87 96 78 60 61 58 54 67 89 64 61 53 59 61 65 83 93 92 82
33 59 95 87 14 18 37 62 78 62 60 60 59 69 72 83 77 82 99 99 94 70 73 66 83 72 76 80 80 71 78 61 52 58 52 57 72 78 66 74 80 74 79 82 81 82 87
11 13 90 84 8 11 24 54 72 66 56 64 66 84 77 68 93 94 100 100 92 87 74 58 57 64 70 73 70 63 78 64 53 55 62 54 80 96 78 65 61 65 74 76 86 79 96
19 12 34 48 20 7 15 37 79 69 63 58 72 73 75 72 97 99 95 94 89 87 65 57 58 51 61 67 71 63 67 52 53 56 62 57 78 93 84 70 68 73 73 69 68 78 91
21 16 18 17 20 6 8 21 70 74 68 69 79 90 70 78 86 89 94 90 78 66 57 52 58 54 56 59 55 74 66 66 56 51 48 52 75 76 84 71 79 88 79 75 79 100 88
27 21 19 18 14 9 7 10 38 72 68 67 86 96 99 98 86 86 87 81 79 83 60 53 55 55 54 67 68 75 66 63 62 59 62 62 86 88 79 73 75 78 76 80 89 76 90
34 30 32 21 10 13 11 9 17 69 74 65 96 99 96 94 89 80 76 76 78 75 71 70 54 54 59 75 68 75 69 68 62 62 66 64 92 95 90 78 87 94 82 82 80 76 77
45 44 46 35 16 13 12 14 12 48 77 92 98 95 100 85 90 76 72 67 66 63 66 69 68 76 81 80 71 55 49 52 56 70 75 71 93 90 92 82 89 94 87 83 81 77 70
50 52 92 49 30 28 24 20 18 18 78 98 93 89 98 92 92 80 80 63 66 70 70 74 69 70 78 71 65 60 60 61 61 65 63 83 94 99 94 89 93 62 61 65 72 71 74
71 54 89 61 51 31 81 51 42 42 23 90 96 90 95 91 89 84 84 71 69 70 75 77 79 76 71 68 84 82 79 72 72 65 75 71 91 93 97 85 75 60 72 76 80 70 66
90 57 88 92 88 54 98 96 65 94 32 38 98 100 97 99 92 96 99 75 78 79 78 80 74 74 73 84 81 90 97 81 97 95 77 82 84 98 100 98 92 55 55 60 64 83 59
99 82 75 88 98 76 94 98 94 99 93 39 86 92 100 100 94 98 97 91 69 77 82 85 78 74 76 90 90 86 80 74 94 96 100 100 100 96 99 98 83 60 53 64 75 66 56
95 75 60 83 100 95 80 97 96 92 90 76 68 65 74 98 94 85 84 89 96 78 86 76 83 85 92 88 90 91 89 82 85 77 92 95 98 97 88 99 94 51 71 69 60 57 63
81 88 72 84 98 100 91 92 98 89 90 86 78 84 84 77 51 62 78 77 76 78 99 86 75 81 77 92 94 91 93 89 86 90 78 88 82 91 85 80 54 48 50 50 56 60 61
Wind_Speed
19 21 23 23 24 23 27 28 29 30 27 27 26 25 24 22 23 24 21 22 20 19 21 22 22 20 17 15 19 2 6 17 25 32 28 20 17 10 6 8 5 3 2 8 15 15 10
20 22 25 24 24 26 27 28 27 29 26 26 25 23 21 19 21 19 19 21 18 19 19 17 22 17 14 11 14 10 3 23 28 29 29 24 14 13 9 3 8 4 11 12 12 13 8
21 25 26 26 25 27 28 28 27 25 24 24 24 21 19 19 19 18 17 18 18 18 17 15 14 12 15 19 9 15 8 23 27 26 29 25 11 12 6 3 6 5 3 1 6 6 5
23 24 26 28 27 28 29 28 28 27 24 24 22 21 19 17 18 18 19 18 18 15 14 13 10 13 8 26 9 16 10 20 22 21 23 23 14 13 4 4 4 5 3 3 3 7 6
24 26 25 27 28 30 28 28 28 26 25 22 23 21 22 21 18 18 17 17 16 14 12 9 14 9 4 11 24 16 16 18 19 21 18 19 19 5 5 5 3 2 4 4 5 7 4
24 25 27 25 29 30 29 28 27 26 27 23 20 22 21 19 19 18 23 17 13 13 8 5 14 6 9 11 25 21 18 13 12 19 16 14 7 4 4 3 8 5 5 2 4 1 4
23 27 29 26 30 30 30 29 27 26 28 25 26 19 17 19 20 27 21 13 1 0 9 7 8 5 2 10 22 23 20 14 8 14 6 11 5 11 11 7 3 5 3 3 3 1 4
25 26 29 27 31 30 31 29 28 27 28 25 27 15 17 19 21 19 21 5 0 1 3 17 5 14 3 18 13 19 17 9 6 3 6 5 9 6 6 6 3 2 0 3 5 1 2
25 27 29 28 30 30 31 30 30 28 28 28 22 15 19 25 23 20 2 2 2 2 1 6 7 6 16 18 9 18 17 6 4 4 3 5 4 9 5 5 4 1 3 3 3 5 2
25 26 28 27 29 30 31 31 29 28 28 23 23 23 26 25 17 4 5 4 6 4 3 4 6 6 15 15 5 19 17 4 3 8 10 4 7 10 7 7 5 4 2 2 3 3 3
24 26 29 28 29 29 31 30 29 29 29 30 25 21 20 7 6 1 3 4 10 2 5 4 6 14 8 2 21 10 13 3 4 5 5 2 5 6 4 4 4 3 3 4 3 3 2
23 24 27 28 27 28 30 30 31 32 30 24 17 14 11 8 9 7 8 11 6 2 5 3 4 8 7 5 5 11 1 6 9 6 7 3 2 4 3 3 3 7 4 6 4 2 2
23 26 27 26 26 27 29 31 33 30 24 17 16 15 16 15 13 13 11 2 3 4 2 4 5 10 10 6 6 3 1 5 3 5 3 5 3 2 6 7 5 4 5 2 4 3 5
21 25 27 24 24 27 29 32 33 26 16 16 15 13 19 18 14 9 4 1 5 4 2 7 13 13 6 5 6 2 4 4 3 6 3 3 2 3 2 4 5 2 5 4 5 1 4
22 23 25 25 25 28 30 31 29 23 11 12 12 15 17 13 10 5 4 4 2 3 2 11 13 9 5 6 3 3 3 3 3 2 5 4 2 1 2 2 4 3 1 2 4 2 3
22 23 24 25 24 25 28 29 28 16 3 5 6 9 11 9 5 4 3 5 4 6 8 5 5 2 3 3 4 2 3 2 4 3 2 5 4 1 1 4 6 3 6 3 3 1 3
23 23 23 25 27 26 26 26 25 17 7 7 8 5 9 10 7 8 3 4 3 7 11 5 3 5 5 4 4 2 6 2 2 3 3 3 4 2 4 3 6 2 1 5 4 3 3
25 27 21 24 29 26 25 25 23 19 13 7 4 3 14 9 5 3 2 3 4 4 2 3 4 5 4 4 3 3 6 3 9 7 4 1 4 3 5 2 3 3 5 5 3 3 2
20 25 22 24 27 26 24 23 23 19 16 11 5 5 12 11 3 3 1 2 2 3 2 3 3 2 3 4 4 2 4 3 10 6 6 4 1 2 2 3 3 3 4 4 4 3 6
19 23 23 24 24 26 24 22 21 19 14 10 4 3 6 8 4 3 4 5 2 2 3 5 4 6 5 2 2 5 3 4 14 9 8 6 3 4 5 4 4 3 5 6 6 3 3
18 21 24 22 22 23 24 21 21 20 12 5 6 3 4 3 4 3 3 3 5 6 6 7 4 5 3 3 3 3 2 2 4 4 4 4 3 2 5 6 3 4 5 7 8 11 5
16 19 23 24 21 20 21 22 18 19 11 9 4 4 7 4 7 5 3 4 4 4 5 4 4 1 2 3 3 5 5 2 2 3 3 0 1 2 4 3 5 5 9 9 9 9 12
14 15 20 25 22 17 19 20 18 16 13 6 6 3 3 5 5 2 2 1 2 1 4 4 2 4 6 3 3 6 7 12 5 6 3 4 4 1 3 4 5 6 11 11 5 5 8
18 11 15 24 23 17 15 18 18 14 12 9 8 4 3 4 2 2 5 4 2 3 3 1 3 2 3 5 9 10 12 8 8 2 5 4 4 2 3 4 1 6 4 7 11 6 12
21 12 12 21 21 17 15 14 15 13 8 4 5 2 2 2 5 7 3 1 1 3 3 1 2 4 7 4 3 2 2 2 3 3 3 4 4 1 1 3 6 4 3 5 5 6 6
20 13 9 16 18 17 13 14 12 14 10 4 5 4 1 2 5 1 4 4 3 1 3 1 2 2 4 2 2 3 4 3 3 2 3 4 5 2 3 2 3 2 1 3 4 4 4
14 13 11 12 16 16 12 13 12 12 12 8 3 5 3 4 7 3 5 3 2 3 2 2 2 2 2 2 2 3 3 4 4 5 5 3 2 6 4 3 6 6 4 7 1 4 3
11 13 14 7 14 16 13 11 11 10 12 11 9 8 7 6 18 16 12 6 3 2 3 4 3 2 2 2 3 3 3 3 2 3 5 6 6 3 4 3 7 6 4 3 4 9 8
12 13 12 8 7 16 17 12 11 10 9 11 12 12 13 11 13 16 18 20 24 16 4 5 2 4 7 3 1 2 2 3 3 3 0 4 6 4 7 5 3 3 7 12 13 11 9
Wind_Direction
339 342 327 327 332 334 323 324 323 326 324 321 315 312 310 309 302 288 285 284 282 290 296 238 246 239 196 194 224 171 222 200 178 186 194 193 178 160 170 178 150 168 211 213 236 254 267
345 333 330 334 336 329 332 329 333 329 327 325 320 315 311 303 300 301 290 286 285 287 283 263 241 261 246 211 235 215 206 168 176 185 193 196 188 172 169 199 176 189 204 254 269 265 252
332 331 333 336 333 332 332 332 331 329 327 326 324 324 318 311 309 306 298 290 288 286 281 279 265 239 214 216 222 183 187 182 181 185 187 195 189 184 170 136 211 225 145 218 236 236 232
331 336 335 334 330 333 334 328 330 330 327 328 327 332 326 320 315 309 304 292 284 283 281 279 254 250 232 222 199 196 183 185 188 194 195 193 168 191 189 151 99 126 89 174 261 180 236
336 338 335 333 332 331 335 333 333 336 330 327 330 332 323 319 316 314 314 298 288 276 273 270 251 250 210 213 219 174 170 175 180 192 186 183 190 186 169 129 82 8 164 190 303 218 221
338 336 334 334 332 334 336 333 336 332 333 329 331 321 318 317 325 323 319 294 301 270 249 232 248 246 196 203 192 173 170 183 158 178 150 163 168 153 126 158 192 162 181 230 209 165 178
340 341 338 335 335 339 337 338 340 335 330 330 329 320 315 316 326 316 336 333 181 49 194 193 226 217 305 191 184 182 173 169 174 155 162 185 179 197 185 178 145 138 152 188 237 262 338
342 340 340 339 337 342 341 340 335 338 328 333 326 317 316 318 320 314 318 298 4 24 296 209 270 203 286 167 163 176 171 164 163 157 133 152 212 166 159 146 176 73 271 276 284 315 321
339 343 345 339 342 345 341 343 340 336 330 331 323 311 312 314 311 307 13 265 87 292 191 191 287 191 176 166 142 169 163 145 138 114 93 124 132 143 151 166 189 160 182 216 230 326 69
347 343 346 344 349 349 346 343 340 339 333 331 326 316 313 315 298 187 315 143 188 162 106 180 193 178 146 127 67 170 168 149 143 136 114 64 136 137 151 192 160 156 223 148 79 51 265
347 349 349 347 351 348 345 345 342 337 333 331 328 330 329 346 12 123 169 131 134 138 132 119 137 146 138 66 132 161 170 147 129 115 116 116 146 148 173 191 138 172 134 108 97 95 34
348 350 350 350 351 353 349 347 346 346 342 344 349 3 11 70 69 98 119 140 116 41 73 110 139 146 90 74 58 133 208 108 96 62 61 103 116 138 161 68 149 138 79 45 52 68 10
351 349 349 353 359 350 351 353 352 355 7 25 33 36 56 69 84 97 94 32 48 65 256 112 134 124 113 110 108 125 153 71 121 125 91 15 10 35 108 77 27 82 74 331 347 16 222
356 350 348 357 355 352 355 357 354 5 38 37 48 71 73 80 90 105 20 31 54 314 44 125 114 94 90 85 101 96 100 96 32 86 91 142 165 183 161 146 171 126 148 160 228 246 289
353 351 352 358 359 360 358 358 1 8 44 62 61 66 66 65 61 47 23 46 350 339 18 118 84 78 49 50 77 100 29 125 140 105 125 122 353 36 74 133 130 186 143 173 107 62 40
354 351 355 360 357 1 358 1 5 4 31 31 34 16 45 48 41 26 65 39 26 160 90 59 83 133 111 117 119 109 174 195 127 139 154 189 94 34 111 91 47 142 152 67 2 105 275
353 352 355 359 1 359 7 9 8 3 10 344 345 351 359 348 8 51 56 26 8 342 12 63 140 100 104 118 121 123 179 11 166 149 40 111 93 283 106 201 172 120 164 56 110 131 160
356 344 355 357 3 3 6 10 9 6 355 5 11 19 358 6 54 40 26 326 321 308 355 64 89 93 113 118 125 109 181 212 190 140 151 149 119 177 198 9 175 157 169 148 124 226 107
357 344 351 355 2 5 2 10 11 4 359 357 3 336 9 20 40 1 356 310 289 306 326 140 94 102 110 127 112 120 184 227 186 148 168 173 17 56 29 23 350 190 191 151 123 104 198
357 346 344 350 1 2 3 5 8 7 5 3 2 13 19 49 44 343 354 347 332 320 30 65 99 106 100 102 82 178 152 3 177 174 192 117 117 152 191 203 140 200 188 188 143 144 200
356 349 342 345 355 360 3 0 7 8 10 17 39 32 5 333 352 331 327 330 8 20 18 51 52 131 126 128 115 120 101 89 81 156 122 115 139 142 248 244 172 204 206 201 195 212 206
354 350 345 339 345 357 360 359 5 13 18 51 67 8 342 295 307 323 346 8 30 343 18 7 115 308 23 100 180 165 127 130 183 70 107 118 135 51 300 306 216 247 240 219 222 234 251
348 340 341 341 334 350 352 1 1 18 25 67 70 38 341 302 333 9 309 331 9 1 37 55 128 99 74 49 49 135 160 170 181 147 127 122 129 101 282 341 320 285 232 193 186 206 211
338 334 336 333 329 337 352 354 4 11 36 50 46 57 19 293 332 310 336 318 5 352 159 2 94 104 143 120 98 84 79 115 131 100 142 129 116 132 286 360 355 248 157 177 197 226 207
321 323 326 322 326 329 345 350 357 6 7 46 39 70 115 262 311 296 324 250 85 40 37 39 28 122 144 130 76 117 58 91 193 182 156 136 121 176 258 263 276 265 168 140 172 279 211
309 310 310 319 326 334 339 344 353 358 3 5 8 6 209 264 236 290 311 275 185 201 354 320 123 124 145 91 106 179 191 177 185 131 110 104 102 173 197 259 260 274 102 143 107 305 242
300 309 304 316 328 338 332 329 347 348 348 359 306 314 297 268 274 246 213 269 235 155 161 276 201 178 173 102 140 179 237 176 174 181 162 157 189 222 238 253 286 246 242 154 138 238 331
301 302 295 301 324 328 329 328 325 328 336 340 331 312 319 273 270 258 257 250 301 234 159 169 95 248 64 150 168 199 170 221 170 201 174 170 175 188 188 234 260 174 126 184 236 311 325
297 294 303 286 330 321 334 317 316 310 313 309 315 315 315 276 266 273 261 247 244 255 312 211 211 178 190 109 212 125 175 163 151 244 178 193 186 184 193 213 240 172 282 287 305 304 324